Zurück zum Katalog

STARLINK-36437

AktivKommunikationVLEO
NORAD 67465·PAYLOAD·🇺🇸 United States

Gestartet Jan 14, 2026 von Cape Canaveral Space Force Station

Loading…

Nächste Überflüge (nächste 24 Stunden)

TLE

AktuellSource: CelesTrak SupGP

Epoche: Sep 15, 2026, 04:01 UTC

1 67465C 26008W   26258.16784722 -.00045234  00000+0 -16387-2 0  2588
2 67465  42.9993 214.9133 0001074 274.3460  66.6758 15.27595407    11

Verfolge STARLINK-36437 in Echtzeit mit AllMySat

Download on the App Store